Time,TemperatureF,DewpointF,PressureIn,WindDirection,WindDirectionDegrees,WindSpeedMPH,WindSpeedGustMPH,Humidity,HourlyPrecipIn,Conditions,Clouds,dailyrainin,SoftwareType,DateUTC
2013-06-19 00:00:00,60.2,50.4,30.04,NNE,26,6.0,6.0,70,0.00,,,0.00,Wunderground v.1.15,2013-06-19 05:00:00,
2013-06-19 00:02:00,60.1,50.7,30.04,NNE,33,6.0,7.0,71,0.00,,,0.00,Wunderground v.1.15,2013-06-19 05:02:00,
2013-06-19 00:06:00,59.9,50.5,30.04,NNW,342,5.0,7.0,71,0.00,,,0.00,Wunderground v.1.15,2013-06-19 05:06:00,
2013-06-19 00:08:00,59.7,50.7,30.04,NE,37,5.0,7.0,72,0.00,,,0.00,Wunderground v.1.15,2013-06-19 05:08:00,
2013-06-19 00:10:00,59.6,50.6,30.04,NE,39,6.0,7.0,72,0.00,,,0.00,Wunderground v.1.15,2013-06-19 05:10:00,
2013-06-19 00:12:00,59.5,50.8,30.04,NE,44,6.0,7.0,73,0.00,,,0.00,Wunderground v.1.15,2013-06-19 05:12:00,
2013-06-19 00:14:00,59.4,50.7,30.04,NNE,27,6.0,7.0,73,0.00,,,0.00,Wunderground v.1.15,2013-06-19 05:14:00,
2013-06-19 00:18:00,59.1,50.8,30.04,NNE,23,6.0,7.0,74,0.00,,,0.00,Wunderground v.1.15,2013-06-19 05:18:00,
2013-06-19 00:20:00,59.0,51.1,30.04,NNE,20,6.0,6.0,75,0.00,,,0.00,Wunderground v.1.15,2013-06-19 05:20:00,
2013-06-19 00:24:00,58.7,51.2,30.05,NNE,20,5.0,7.0,76,0.00,,,0.00,Wunderground v.1.15,2013-06-19 05:24:00,
2013-06-19 00:28:00,58.4,50.9,30.05,NNE,23,5.0,7.0,76,0.00,,,0.00,Wunderground v.1.15,2013-06-19 05:28:00,
2013-06-19 00:30:00,58.4,50.9,30.05,NNE,26,5.0,5.0,76,0.00,,,0.00,Wunderground v.1.15,2013-06-19 05:30:00,
2013-06-19 00:32:00,58.3,51.1,30.05,NNE,32,5.0,7.0,77,0.00,,,0.00,Wunderground v.1.15,2013-06-19 05:32:00,
2013-06-19 00:34:00,58.3,50.8,30.05,NNE,27,5.0,7.0,76,0.00,,,0.00,Wunderground v.1.15,2013-06-19 05:34:00,
2013-06-19 00:36:00,58.3,50.8,30.05,NNE,22,5.0,7.0,76,0.00,,,0.00,Wunderground v.1.15,2013-06-19 05:36:00,
2013-06-19 00:38:00,58.3,50.8,30.05,NNE,23,5.0,7.0,76,0.00,,,0.00,Wunderground v.1.15,2013-06-19 05:38:00,
2013-06-19 00:40:00,58.2,50.7,30.05,NNE,20,5.0,5.0,76,0.00,,,0.00,Wunderground v.1.15,2013-06-19 05:40:00,
2013-06-19 00:46:00,57.7,50.9,30.05,NNE,30,4.0,7.0,78,0.00,,,0.00,Wunderground v.1.15,2013-06-19 05:46:00,
2013-06-19 00:48:00,57.6,50.8,30.05,NNE,29,4.0,7.0,78,0.00,,,0.00,Wunderground v.1.15,2013-06-19 05:48:00,
2013-06-19 00:54:00,57.3,50.5,30.05,NNE,33,4.0,7.0,78,0.00,,,0.00,Wunderground v.1.15,2013-06-19 05:54:00,
2013-06-19 00:56:00,57.2,50.4,30.05,NNE,23,5.0,7.0,78,0.00,,,0.00,Wunderground v.1.15,2013-06-19 05:56:00,
2013-06-19 01:00:00,57.2,50.1,30.05,NNE,26,5.0,7.0,77,0.00,,,0.00,Wunderground v.1.15,2013-06-19 06:00:00,
2013-06-19 01:02:00,57.2,50.1,30.05,NE,34,5.0,7.0,77,0.00,,,0.00,Wunderground v.1.15,2013-06-19 06:02:00,
2013-06-19 01:08:00,57.1,50.0,30.05,NNE,18,6.0,7.0,77,0.00,,,0.00,Wunderground v.1.15,2013-06-19 06:08:00,
2013-06-19 01:10:00,57.1,50.0,30.05,NNE,22,6.0,7.0,77,0.00,,,0.00,Wunderground v.1.15,2013-06-19 06:10:00,
2013-06-19 01:12:00,57.0,49.9,30.05,NE,39,6.0,7.0,77,0.00,,,0.00,Wunderground v.1.15,2013-06-19 06:12:00,
2013-06-19 01:14:00,56.9,49.8,30.05,NNE,16,6.0,7.0,77,0.00,,,0.00,Wunderground v.1.15,2013-06-19 06:14:00,
2013-06-19 01:16:00,56.8,49.7,30.05,NNE,20,5.0,7.0,77,0.00,,,0.00,Wunderground v.1.15,2013-06-19 06:16:00,
2013-06-19 01:20:00,56.6,49.8,30.05,North,5,5.0,5.0,78,0.00,,,0.00,Wunderground v.1.15,2013-06-19 06:20:00,
2013-06-19 01:22:00,56.5,49.7,30.05,NNE,23,5.0,7.0,78,0.00,,,0.00,Wunderground v.1.15,2013-06-19 06:22:00,
2013-06-19 01:24:00,56.4,49.6,30.05,North,6,4.0,7.0,78,0.00,,,0.00,Wunderground v.1.15,2013-06-19 06:24:00,
2013-06-19 01:28:00,56.2,49.8,30.05,North,360,4.0,7.0,79,0.00,,,0.00,Wunderground v.1.15,2013-06-19 06:28:00,
2013-06-19 01:30:00,56.1,49.7,30.05,North,5,4.0,7.0,79,0.00,,,0.00,Wunderground v.1.15,2013-06-19 06:30:00,
2013-06-19 01:32:00,56.0,49.9,30.05,North,360,5.0,7.0,80,0.00,,,0.00,Wunderground v.1.15,2013-06-19 06:32:00,
2013-06-19 01:34:00,55.9,49.8,30.06,North,352,5.0,7.0,80,0.00,,,0.00,Wunderground v.1.15,2013-06-19 06:34:00,
2013-06-19 01:38:00,55.9,49.5,30.05,North,9,6.0,7.0,79,0.00,,,0.00,Wunderground v.1.15,2013-06-19 06:38:00,
2013-06-19 01:40:00,55.9,49.5,30.05,NNE,20,6.0,7.0,79,0.00,,,0.00,Wunderground v.1.15,2013-06-19 06:40:00,
2013-06-19 01:42:00,55.9,49.5,30.05,NNE,23,6.0,7.0,79,0.00,,,0.00,Wunderground v.1.15,2013-06-19 06:42:00,
2013-06-19 01:46:00,55.9,49.5,30.05,NNE,23,6.0,7.0,79,0.00,,,0.00,Wunderground v.1.15,2013-06-19 06:46:00,
2013-06-19 01:48:00,55.9,49.1,30.06,NNE,15,6.0,7.0,78,0.00,,,0.00,Wunderground v.1.15,2013-06-19 06:48:00,
2013-06-19 01:52:00,56.0,48.9,30.05,NNE,25,6.0,7.0,77,0.00,,,0.00,Wunderground v.1.15,2013-06-19 06:52:00,
2013-06-19 01:56:00,56.1,49.0,30.05,NNE,32,6.0,7.0,77,0.00,,,0.00,Wunderground v.1.15,2013-06-19 06:56:00,
2013-06-19 01:58:00,56.1,49.0,30.05,NNE,23,6.0,7.0,77,0.00,,,0.00,Wunderground v.1.15,2013-06-19 06:58:00,
2013-06-19 02:00:00,56.1,49.0,30.05,NNE,26,6.0,7.0,77,0.00,,,0.00,Wunderground v.1.15,2013-06-19 07:00:00,
2013-06-19 02:02:00,56.1,49.0,30.05,NNE,26,7.0,7.0,77,0.00,,,0.00,Wunderground v.1.15,2013-06-19 07:02:00,
2013-06-19 02:04:00,56.0,48.9,30.05,NE,45,6.0,7.0,77,0.00,,,0.00,Wunderground v.1.15,2013-06-19 07:04:00,
2013-06-19 02:10:00,55.9,48.8,30.05,NNE,26,5.0,5.0,77,0.00,,,0.00,Wunderground v.1.15,2013-06-19 07:10:00,
2013-06-19 02:12:00,55.9,48.8,30.05,NE,40,4.0,7.0,77,0.00,,,0.00,Wunderground v.1.15,2013-06-19 07:12:00,
2013-06-19 02:16:00,56.0,48.9,30.05,NE,52,5.0,7.0,77,0.00,,,0.00,Wunderground v.1.15,2013-06-19 07:16:00,
2013-06-19 02:18:00,56.0,48.5,30.05,NE,37,5.0,7.0,76,0.00,,,0.00,Wunderground v.1.15,2013-06-19 07:18:00,
2013-06-19 02:20:00,56.0,48.5,30.05,NNE,25,5.0,7.0,76,0.00,,,0.00,Wunderground v.1.15,2013-06-19 07:20:00,
2013-06-19 02:22:00,56.0,48.5,30.05,NNE,29,5.0,7.0,76,0.00,,,0.00,Wunderground v.1.15,2013-06-19 07:22:00,
2013-06-19 02:26:00,55.9,48.4,30.05,NE,34,5.0,7.0,76,0.00,,,0.00,Wunderground v.1.15,2013-06-19 07:26:00,
2013-06-19 02:28:00,55.9,48.4,30.05,NNE,27,5.0,7.0,76,0.00,,,0.00,Wunderground v.1.15,2013-06-19 07:28:00,
2013-06-19 02:32:00,55.9,48.4,30.05,NE,47,5.0,7.0,76,0.00,,,0.00,Wunderground v.1.15,2013-06-19 07:32:00,
2013-06-19 02:34:00,55.8,48.3,30.05,ENE,60,5.0,7.0,76,0.00,,,0.00,Wunderground v.1.15,2013-06-19 07:34:00,
2013-06-19 02:36:00,55.8,48.3,30.05,ENE,65,5.0,7.0,76,0.00,,,0.00,Wunderground v.1.15,2013-06-19 07:36:00,
2013-06-19 02:42:00,55.8,48.0,30.05,NNE,20,5.0,7.0,75,0.00,,,0.00,Wunderground v.1.15,2013-06-19 07:42:00,
2013-06-19 02:44:00,55.8,48.0,30.05,ENE,60,5.0,7.0,75,0.00,,,0.00,Wunderground v.1.15,2013-06-19 07:44:00,
2013-06-19 02:48:00,55.7,48.2,30.05,NNE,29,5.0,7.0,76,0.00,,,0.00,Wunderground v.1.15,2013-06-19 07:48:00,
2013-06-19 02:50:00,55.7,48.2,30.05,NE,37,5.0,7.0,76,0.00,,,0.00,Wunderground v.1.15,2013-06-19 07:50:00,
2013-06-19 02:54:00,55.4,48.3,30.05,NNE,26,5.0,7.0,77,0.00,,,0.00,Wunderground v.1.15,2013-06-19 07:54:00,
2013-06-19 02:56:00,55.3,48.2,30.05,NNE,26,5.0,7.0,77,0.00,,,0.00,Wunderground v.1.15,2013-06-19 07:56:00,
2013-06-19 02:58:00,55.2,48.5,30.05,NNE,18,5.0,7.0,78,0.00,,,0.00,Wunderground v.1.15,2013-06-19 07:58:00,
2013-06-19 03:02:00,55.1,48.4,30.05,NNE,15,5.0,7.0,78,0.00,,,0.00,Wunderground v.1.15,2013-06-19 08:02:00,
2013-06-19 03:04:00,55.2,48.5,30.05,NNE,30,6.0,7.0,78,0.00,,,0.00,Wunderground v.1.15,2013-06-19 08:04:00,
2013-06-19 03:08:00,55.2,48.5,30.05,NNE,25,6.0,7.0,78,0.00,,,0.00,Wunderground v.1.15,2013-06-19 08:08:00,
2013-06-19 03:10:00,55.1,48.4,30.05,North,1,6.0,6.0,78,0.00,,,0.00,Wunderground v.1.15,2013-06-19 08:10:00,
2013-06-19 03:12:00,55.1,48.4,30.05,NNE,26,6.0,7.0,78,0.00,,,0.00,Wunderground v.1.15,2013-06-19 08:12:00,
2013-06-19 03:18:00,54.9,48.5,30.06,NNE,13,6.0,8.0,79,0.00,,,0.00,Wunderground v.1.15,2013-06-19 08:18:00,
2013-06-19 03:20:00,54.9,48.5,30.06,North,5,6.0,6.0,79,0.00,,,0.00,Wunderground v.1.15,2013-06-19 08:20:00,
2013-06-19 03:22:00,54.8,48.4,30.06,NNE,15,6.0,7.0,79,0.00,,,0.00,Wunderground v.1.15,2013-06-19 08:22:00,
2013-06-19 03:24:00,54.7,48.3,30.06,NNE,30,6.0,7.0,79,0.00,,,0.00,Wunderground v.1.15,2013-06-19 08:24:00,
2013-06-19 03:26:00,54.7,48.3,30.06,NNE,20,6.0,7.0,79,0.00,,,0.00,Wunderground v.1.15,2013-06-19 08:26:00,
2013-06-19 03:28:00,54.7,48.6,30.06,NNE,29,5.0,7.0,80,0.00,,,0.00,Wunderground v.1.15,2013-06-19 08:28:00,
2013-06-19 03:30:00,54.6,48.6,30.05,North,9,5.0,7.0,80,0.00,,,0.00,Wunderground v.1.15,2013-06-19 08:30:00,
2013-06-19 03:32:00,54.6,48.6,30.05,NNE,33,5.0,7.0,80,0.00,,,0.00,Wunderground v.1.15,2013-06-19 08:32:00,
2013-06-19 03:34:00,54.6,48.6,30.05,North,355,6.0,7.0,80,0.00,,,0.00,Wunderground v.1.15,2013-06-19 08:34:00,
2013-06-19 03:38:00,54.5,48.5,30.05,NE,37,6.0,7.0,80,0.00,,,0.00,Wunderground v.1.15,2013-06-19 08:38:00,
2013-06-19 03:40:00,54.5,48.5,30.05,North,9,6.0,6.0,80,0.00,,,0.00,Wunderground v.1.15,2013-06-19 08:40:00,
2013-06-19 03:42:00,54.4,48.4,30.05,NNE,18,6.0,7.0,80,0.00,,,0.00,Wunderground v.1.15,2013-06-19 08:42:00,
2013-06-19 03:46:00,54.3,48.3,30.05,NNE,18,6.0,7.0,80,0.00,,,0.00,Wunderground v.1.15,2013-06-19 08:46:00,
2013-06-19 03:48:00,54.3,48.6,30.05,NNE,13,6.0,7.0,81,0.00,,,0.00,Wunderground v.1.15,2013-06-19 08:48:00,
2013-06-19 03:50:00,54.3,48.6,30.06,NNE,27,6.0,7.0,81,0.00,,,0.00,Wunderground v.1.15,2013-06-19 08:50:00,
2013-06-19 03:52:00,54.3,48.6,30.06,NNE,30,6.0,7.0,81,0.00,,,0.00,Wunderground v.1.15,2013-06-19 08:52:00,
2013-06-19 03:54:00,54.3,48.6,30.06,NNE,26,6.0,8.0,81,0.00,,,0.00,Wunderground v.1.15,2013-06-19 08:54:00,
2013-06-19 03:56:00,54.3,48.6,30.06,North,4,6.0,8.0,81,0.00,,,0.00,Wunderground v.1.15,2013-06-19 08:56:00,
2013-06-19 03:58:00,54.3,48.6,30.06,NNE,15,6.0,8.0,81,0.00,,,0.00,Wunderground v.1.15,2013-06-19 08:58:00,
2013-06-19 04:00:00,54.3,48.6,30.06,North,351,6.0,6.0,81,0.00,,,0.00,Wunderground v.1.15,2013-06-19 09:00:00,
2013-06-19 04:02:00,54.2,48.5,30.06,NE,34,6.0,7.0,81,0.00,,,0.00,Wunderground v.1.15,2013-06-19 09:02:00,
2013-06-19 04:06:00,54.3,48.3,30.06,NNE,29,6.0,7.0,80,0.00,,,0.00,Wunderground v.1.15,2013-06-19 09:06:00,
2013-06-19 04:08:00,54.3,48.3,30.06,NNE,18,6.0,7.0,80,0.00,,,0.00,Wunderground v.1.15,2013-06-19 09:08:00,
2013-06-19 04:10:00,54.3,48.3,30.06,NNE,29,6.0,7.0,80,0.00,,,0.00,Wunderground v.1.15,2013-06-19 09:10:00,
2013-06-19 04:14:00,54.3,48.3,30.06,NNE,25,6.0,9.0,80,0.00,,,0.00,Wunderground v.1.15,2013-06-19 09:14:00,
2013-06-19 04:16:00,54.2,48.2,30.06,NNE,26,7.0,9.0,80,0.00,,,0.00,Wunderground v.1.15,2013-06-19 09:16:00,
2013-06-19 04:18:00,54.2,48.2,30.06,NNE,29,7.0,9.0,80,0.00,,,0.00,Wunderground v.1.15,2013-06-19 09:18:00,
2013-06-19 04:20:00,54.2,48.5,30.06,NNE,29,7.0,7.0,81,0.00,,,0.00,Wunderground v.1.15,2013-06-19 09:20:00,
2013-06-19 04:24:00,54.1,48.4,30.06,North,9,7.0,7.0,81,0.00,,,0.00,Wunderground v.1.15,2013-06-19 09:24:00,
2013-06-19 04:26:00,54.1,48.4,30.06,North,6,7.0,7.0,81,0.00,,,0.00,Wunderground v.1.15,2013-06-19 09:26:00,
2013-06-19 04:28:00,54.0,48.3,30.06,NNE,23,7.0,8.0,81,0.00,,,0.00,Wunderground v.1.15,2013-06-19 09:28:00,
2013-06-19 04:30:00,54.0,48.3,30.06,NE,40,7.0,7.0,81,0.00,,,0.00,Wunderground v.1.15,2013-06-19 09:30:00,
2013-06-19 04:32:00,54.0,48.3,30.06,NNE,23,7.0,7.0,81,0.00,,,0.00,Wunderground v.1.15,2013-06-19 09:32:00,
2013-06-19 04:34:00,53.9,48.2,30.06,NNE,12,7.0,9.0,81,0.00,,,0.00,Wunderground v.1.15,2013-06-19 09:34:00,
2013-06-19 04:38:00,53.9,48.2,30.06,NNE,31,7.0,9.0,81,0.00,,,0.00,Wunderground v.1.15,2013-06-19 09:38:00,
2013-06-19 04:40:00,53.9,48.2,30.06,NNE,12,7.0,7.0,81,0.00,,,0.00,Wunderground v.1.15,2013-06-19 09:40:00,
2013-06-19 04:44:00,54.0,48.0,30.06,NNE,30,8.0,9.0,80,0.00,,,0.00,Wunderground v.1.15,2013-06-19 09:44:00,
2013-06-19 04:46:00,54.0,48.0,30.06,NE,37,8.0,9.0,80,0.00,,,0.00,Wunderground v.1.15,2013-06-19 09:46:00,
2013-06-19 04:50:00,54.0,48.0,30.06,NNE,26,8.0,9.0,80,0.00,,,0.00,Wunderground v.1.15,2013-06-19 09:50:00,
2013-06-19 04:52:00,54.0,48.0,30.06,NNE,33,8.0,9.0,80,0.00,,,0.00,Wunderground v.1.15,2013-06-19 09:52:00,
2013-06-19 04:54:00,54.0,48.0,30.06,NNE,18,8.0,9.0,80,0.00,,,0.00,Wunderground v.1.15,2013-06-19 09:54:00,
2013-06-19 04:58:00,53.9,47.9,30.07,NNE,30,7.0,9.0,80,0.00,,,0.00,Wunderground v.1.15,2013-06-19 09:58:00,
2013-06-19 05:00:00,53.9,47.9,30.07,NNE,15,7.0,7.0,80,0.00,,,0.00,Wunderground v.1.15,2013-06-19 10:00:00,
2013-06-19 05:02:00,53.9,47.9,30.07,NNE,30,7.0,7.0,80,0.00,,,0.00,Wunderground v.1.15,2013-06-19 10:02:00,
2013-06-19 05:04:00,53.8,47.8,30.07,NNE,25,7.0,8.0,80,0.00,,,0.00,Wunderground v.1.15,2013-06-19 10:04:00,
2013-06-19 05:06:00,53.8,48.1,30.07,NNE,18,7.0,10.0,81,0.00,,,0.00,Wunderground v.1.15,2013-06-19 10:06:00,
2013-06-19 05:08:00,53.7,48.0,30.07,NNE,23,7.0,10.0,81,0.00,,,0.00,Wunderground v.1.15,2013-06-19 10:08:00,
2013-06-19 05:10:00,53.7,48.0,30.07,NNE,13,7.0,7.0,81,0.00,,,0.00,Wunderground v.1.15,2013-06-19 10:10:00,
2013-06-19 05:12:00,53.7,48.0,30.07,NNE,29,7.0,7.0,81,0.00,,,0.00,Wunderground v.1.15,2013-06-19 10:12:00,
2013-06-19 05:16:00,53.7,48.0,30.06,NNE,15,7.0,8.0,81,0.00,,,0.00,Wunderground v.1.15,2013-06-19 10:16:00,
2013-06-19 05:20:00,53.6,47.9,30.06,NNE,30,7.0,8.0,81,0.00,,,0.00,Wunderground v.1.15,2013-06-19 10:20:00,
2013-06-19 05:22:00,53.6,47.9,30.07,NNE,13,7.0,8.0,81,0.00,,,0.00,Wunderground v.1.15,2013-06-19 10:22:00,
2013-06-19 05:24:00,53.6,47.9,30.06,NNE,25,7.0,8.0,81,0.00,,,0.00,Wunderground v.1.15,2013-06-19 10:24:00,
2013-06-19 05:30:00,53.6,47.9,30.07,North,11,6.0,7.0,81,0.00,,,0.00,Wunderground v.1.15,2013-06-19 10:30:00,
2013-06-19 05:34:00,53.5,48.1,30.07,NNE,26,6.0,10.0,82,0.00,,,0.00,Wunderground v.1.15,2013-06-19 10:34:00,
2013-06-19 05:38:00,53.4,48.0,30.07,NNE,20,6.0,10.0,82,0.00,,,0.00,Wunderground v.1.15,2013-06-19 10:38:00,
2013-06-19 05:40:00,53.4,48.0,30.07,NNE,25,6.0,7.0,82,0.00,,,0.00,Wunderground v.1.15,2013-06-19 10:40:00,
2013-06-19 05:42:00,53.5,48.1,30.07,NE,43,6.0,7.0,82,0.00,,,0.00,Wunderground v.1.15,2013-06-19 10:42:00,
2013-06-19 05:48:00,53.7,48.3,30.07,NE,38,6.0,8.0,82,0.00,,,0.00,Wunderground v.1.15,2013-06-19 10:48:00,
2013-06-19 05:50:00,53.8,48.4,30.07,North,8,6.0,7.0,82,0.00,,,0.00,Wunderground v.1.15,2013-06-19 10:50:00,
2013-06-19 05:52:00,53.8,48.4,30.07,NNE,15,6.0,7.0,82,0.00,,,0.00,Wunderground v.1.15,2013-06-19 10:52:00,
2013-06-19 05:56:00,54.0,48.3,30.07,North,360,6.0,7.0,81,0.00,,,0.00,Wunderground v.1.15,2013-06-19 10:56:00,
2013-06-19 06:00:00,54.2,48.5,30.08,NNE,13,6.0,7.0,81,0.00,,,0.00,Wunderground v.1.15,2013-06-19 11:00:00,
2013-06-19 06:06:00,54.5,48.8,30.08,NNE,25,6.0,7.0,81,0.00,,,0.00,Wunderground v.1.15,2013-06-19 11:06:00,
2013-06-19 06:08:00,54.7,49.0,30.09,NNE,29,5.0,7.0,81,0.00,,,0.00,Wunderground v.1.15,2013-06-19 11:08:00,
2013-06-19 06:10:00,54.9,48.8,30.09,East,79,5.0,5.0,80,0.00,,,0.00,Wunderground v.1.15,2013-06-19 11:10:00,
2013-06-19 06:12:00,55.1,49.0,30.08,NE,45,5.0,7.0,80,0.00,,,0.00,Wunderground v.1.15,2013-06-19 11:12:00,
2013-06-19 06:16:00,55.3,48.9,30.08,NE,43,4.0,7.0,79,0.00,,,0.00,Wunderground v.1.15,2013-06-19 11:16:00,
2013-06-19 06:18:00,55.5,49.1,30.08,NNE,12,5.0,7.0,79,0.00,,,0.00,Wunderground v.1.15,2013-06-19 11:18:00,
2013-06-19 06:20:00,55.7,49.3,30.09,NNE,29,5.0,7.0,79,0.00,,,0.00,Wunderground v.1.15,2013-06-19 11:20:00,
2013-06-19 06:22:00,55.8,49.0,30.09,NE,41,5.0,7.0,78,0.00,,,0.00,Wunderground v.1.15,2013-06-19 11:22:00,
2013-06-19 06:24:00,55.9,49.1,30.09,East,84,5.0,7.0,78,0.00,,,0.00,Wunderground v.1.15,2013-06-19 11:24:00,
2013-06-19 06:26:00,56.0,49.2,30.08,NE,50,5.0,7.0,78,0.00,,,0.00,Wunderground v.1.15,2013-06-19 11:26:00,
2013-06-19 06:28:00,56.1,49.3,30.09,NE,51,6.0,7.0,78,0.00,,,0.00,Wunderground v.1.15,2013-06-19 11:28:00,
2013-06-19 06:34:00,56.5,49.7,30.09,ENE,63,6.0,7.0,78,0.00,,,0.00,Wunderground v.1.15,2013-06-19 11:34:00,
2013-06-19 06:36:00,56.5,49.4,30.09,East,86,6.0,7.0,77,0.00,,,0.00,Wunderground v.1.15,2013-06-19 11:36:00,
2013-06-19 06:42:00,56.9,50.1,30.09,NNE,24,6.0,7.0,78,0.00,,,0.00,Wunderground v.1.15,2013-06-19 11:42:00,
2013-06-19 06:44:00,57.0,49.9,30.09,ENE,64,6.0,7.0,77,0.00,,,0.00,Wunderground v.1.15,2013-06-19 11:44:00,
2013-06-19 06:46:00,57.1,50.0,30.09,NE,43,6.0,7.0,77,0.00,,,0.00,Wunderground v.1.15,2013-06-19 11:46:00,
2013-06-19 06:48:00,57.2,50.1,30.09,ENE,59,6.0,8.0,77,0.00,,,0.00,Wunderground v.1.15,2013-06-19 11:48:00,
2013-06-19 06:50:00,57.3,50.1,30.09,ENE,68,6.0,7.0,77,0.00,,,0.00,Wunderground v.1.15,2013-06-19 11:50:00,
2013-06-19 06:54:00,57.6,50.8,30.09,NE,37,6.0,7.0,78,0.00,,,0.00,Wunderground v.1.15,2013-06-19 11:54:00,
2013-06-19 06:58:00,58.0,50.8,30.09,NE,54,6.0,7.0,77,0.00,,,0.00,Wunderground v.1.15,2013-06-19 11:58:00,
2013-06-19 07:00:00,58.2,51.0,30.09,ENE,57,6.0,8.0,77,0.00,,,0.00,Wunderground v.1.15,2013-06-19 12:00:00,
2013-06-19 07:02:00,58.4,50.9,30.09,ENE,75,6.0,8.0,76,0.00,,,0.00,Wunderground v.1.15,2013-06-19 12:02:00,
2013-06-19 07:04:00,58.6,51.4,30.09,NE,53,6.0,8.0,77,0.00,,,0.00,Wunderground v.1.15,2013-06-19 12:04:00,
2013-06-19 07:10:00,59.3,51.4,30.09,ENE,70,6.0,6.0,75,0.00,,,0.00,Wunderground v.1.15,2013-06-19 12:10:00,
2013-06-19 07:14:00,59.7,51.4,30.09,ENE,68,6.0,8.0,74,0.00,,,0.00,Wunderground v.1.15,2013-06-19 12:14:00,
2013-06-19 07:16:00,60.0,51.7,30.09,ENE,66,6.0,8.0,74,0.00,,,0.00,Wunderground v.1.15,2013-06-19 12:16:00,
2013-06-19 07:20:00,60.4,51.7,30.09,ENE,67,7.0,7.0,73,0.00,,,0.00,Wunderground v.1.15,2013-06-19 12:20:00,
2013-06-19 07:22:00,60.7,52.0,30.09,ENE,70,7.0,7.0,73,0.00,,,0.00,Wunderground v.1.15,2013-06-19 12:22:00,
2013-06-19 07:24:00,60.8,51.7,30.09,NE,49,7.0,7.0,72,0.00,,,0.00,Wunderground v.1.15,2013-06-19 12:24:00,
2013-06-19 07:28:00,60.9,51.8,30.09,East,94,8.0,9.0,72,0.00,,,0.00,Wunderground v.1.15,2013-06-19 12:28:00,
2013-06-19 07:30:00,61.1,52.0,30.09,ENE,77,8.0,8.0,72,0.00,,,0.00,Wunderground v.1.15,2013-06-19 12:30:00,
2013-06-19 07:32:00,61.4,51.9,30.09,East,84,9.0,10.0,71,0.00,,,0.00,Wunderground v.1.15,2013-06-19 12:32:00,
2013-06-19 07:34:00,61.5,52.0,30.09,ENE,63,9.0,10.0,71,0.00,,,0.00,Wunderground v.1.15,2013-06-19 12:34:00,
2013-06-19 07:38:00,62.0,52.5,30.09,ESE,103,9.0,10.0,71,0.00,,,0.00,Wunderground v.1.15,2013-06-19 12:38:00,
2013-06-19 07:42:00,62.2,52.3,30.09,East,81,9.0,9.0,70,0.00,,,0.00,Wunderground v.1.15,2013-06-19 12:42:00,
2013-06-19 07:44:00,62.5,52.6,30.09,ESE,105,9.0,10.0,70,0.00,,,0.00,Wunderground v.1.15,2013-06-19 12:44:00,
2013-06-19 07:46:00,62.6,52.3,30.09,East,92,9.0,10.0,69,0.00,,,0.00,Wunderground v.1.15,2013-06-19 12:46:00,
2013-06-19 07:50:00,62.9,52.6,30.09,ENE,78,9.0,9.0,69,0.00,,,0.00,Wunderground v.1.15,2013-06-19 12:50:00,
2013-06-19 07:52:00,63.0,52.7,30.09,ESE,105,9.0,11.0,69,0.00,,,0.00,Wunderground v.1.15,2013-06-19 12:52:00,
2013-06-19 07:54:00,63.2,52.9,30.09,East,91,10.0,11.0,69,0.00,,,0.00,Wunderground v.1.15,2013-06-19 12:54:00,
2013-06-19 07:56:00,63.3,53.0,30.09,ENE,65,10.0,11.0,69,0.00,,,0.00,Wunderground v.1.15,2013-06-19 12:56:00,
2013-06-19 07:58:00,63.5,52.7,30.09,East,101,10.0,11.0,68,0.00,,,0.00,Wunderground v.1.15,2013-06-19 12:58:00,
2013-06-19 08:00:00,63.6,52.8,30.09,East,101,10.0,14.0,68,0.00,,,0.00,Wunderground v.1.15,2013-06-19 13:00:00,
2013-06-19 08:02:00,63.8,53.0,30.09,ESE,110,11.0,14.0,68,0.00,,,0.00,Wunderground v.1.15,2013-06-19 13:02:00,
2013-06-19 08:04:00,64.0,53.6,30.09,ENE,68,10.0,14.0,69,0.00,,,0.00,Wunderground v.1.15,2013-06-19 13:04:00,
2013-06-19 08:06:00,64.0,52.8,30.09,ESE,120,10.0,14.0,67,0.00,,,0.00,Wunderground v.1.15,2013-06-19 13:06:00,
2013-06-19 08:08:00,64.1,53.3,30.09,ESE,107,11.0,14.0,68,0.00,,,0.00,Wunderground v.1.15,2013-06-19 13:08:00,
2013-06-19 08:10:00,64.5,53.7,30.09,ESE,113,10.0,12.0,68,0.00,,,0.00,Wunderground v.1.15,2013-06-19 13:10:00,
2013-06-19 08:12:00,64.5,53.3,30.09,ESE,102,10.0,12.0,67,0.00,,,0.00,Wunderground v.1.15,2013-06-19 13:12:00,
2013-06-19 08:14:00,64.7,53.9,30.09,ENE,64,10.0,12.0,68,0.00,,,0.00,Wunderground v.1.15,2013-06-19 13:14:00,
2013-06-19 08:18:00,64.7,53.9,30.09,ESE,122,10.0,12.0,68,0.00,,,0.00,Wunderground v.1.15,2013-06-19 13:18:00,
2013-06-19 08:20:00,64.8,54.0,30.09,East,101,10.0,10.0,68,0.00,,,0.00,Wunderground v.1.15,2013-06-19 13:20:00,
2013-06-19 08:22:00,65.0,54.2,30.09,East,94,10.0,10.0,68,0.00,,,0.00,Wunderground v.1.15,2013-06-19 13:22:00,
2013-06-19 08:24:00,65.1,54.3,30.09,ESE,105,11.0,11.0,68,0.00,,,0.00,Wunderground v.1.15,2013-06-19 13:24:00,
2013-06-19 08:30:00,65.9,55.4,30.10,East,96,9.0,9.0,69,0.00,,,0.00,Wunderground v.1.15,2013-06-19 13:30:00,
2013-06-19 08:32:00,66.1,54.8,30.10,ESE,110,9.0,9.0,67,0.00,,,0.00,Wunderground v.1.15,2013-06-19 13:32:00,
2013-06-19 08:34:00,66.1,54.8,30.10,ESE,107,9.0,9.0,67,0.00,,,0.00,Wunderground v.1.15,2013-06-19 13:34:00,
2013-06-19 08:36:00,66.4,55.5,30.10,East,98,9.0,9.0,68,0.00,,,0.00,Wunderground v.1.15,2013-06-19 13:36:00,
2013-06-19 08:38:00,66.6,55.7,30.10,East,94,9.0,9.0,68,0.00,,,0.00,Wunderground v.1.15,2013-06-19 13:38:00,
2013-06-19 08:42:00,66.7,55.8,30.10,ESE,108,9.0,11.0,68,0.00,,,0.00,Wunderground v.1.15,2013-06-19 13:42:00,
2013-06-19 08:44:00,66.7,55.8,30.10,East,95,8.0,11.0,68,0.00,,,0.00,Wunderground v.1.15,2013-06-19 13:44:00,
2013-06-19 08:46:00,66.9,56.0,30.10,ESE,105,8.0,11.0,68,0.00,,,0.00,Wunderground v.1.15,2013-06-19 13:46:00,
2013-06-19 08:50:00,67.1,56.2,30.09,ESE,110,8.0,8.0,68,0.00,,,0.00,Wunderground v.1.15,2013-06-19 13:50:00,
2013-06-19 08:52:00,67.4,56.5,30.09,SE,128,8.0,8.0,68,0.00,,,0.00,Wunderground v.1.15,2013-06-19 13:52:00,
2013-06-19 08:54:00,67.6,56.7,30.09,ENE,73,8.0,8.0,68,0.00,,,0.00,Wunderground v.1.15,2013-06-19 13:54:00,
2013-06-19 08:58:00,68.1,57.1,30.10,East,96,7.0,8.0,68,0.00,,,0.00,Wunderground v.1.15,2013-06-19 13:58:00,
2013-06-19 09:00:00,68.0,56.6,30.09,East,85,7.0,7.0,67,0.00,,,0.00,Wunderground v.1.15,2013-06-19 14:00:00,
2013-06-19 09:06:00,68.5,57.1,30.10,East,94,8.0,10.0,67,0.00,,,0.00,Wunderground v.1.15,2013-06-19 14:06:00,
2013-06-19 09:08:00,68.7,57.7,30.10,East,87,8.0,10.0,68,0.00,,,0.00,Wunderground v.1.15,2013-06-19 14:08:00,
2013-06-19 09:12:00,69.1,58.1,30.10,ESE,122,8.0,8.0,68,0.00,,,0.00,Wunderground v.1.15,2013-06-19 14:12:00,
2013-06-19 09:14:00,69.2,58.2,30.10,ESE,112,7.0,8.0,68,0.00,,,0.00,Wunderground v.1.15,2013-06-19 14:14:00,
2013-06-19 09:16:00,69.4,58.0,30.10,ESE,120,7.0,8.0,67,0.00,,,0.00,Wunderground v.1.15,2013-06-19 14:16:00,
2013-06-19 09:20:00,69.8,58.8,30.10,ESE,106,6.0,6.0,68,0.00,,,0.00,Wunderground v.1.15,2013-06-19 14:20:00,
2013-06-19 09:22:00,70.0,58.1,30.10,ESE,115,6.0,7.0,66,0.00,,,0.00,Wunderground v.1.15,2013-06-19 14:22:00,
2013-06-19 09:26:00,70.0,57.7,30.10,ESE,115,6.0,10.0,65,0.00,,,0.00,Wunderground v.1.15,2013-06-19 14:26:00,
2013-06-19 09:28:00,69.9,58.4,30.10,East,101,7.0,10.0,67,0.00,,,0.00,Wunderground v.1.15,2013-06-19 14:28:00,
2013-06-19 09:30:00,70.0,58.5,30.10,ENE,68,7.0,7.0,67,0.00,,,0.00,Wunderground v.1.15,2013-06-19 14:30:00,
2013-06-19 09:32:00,70.2,59.6,30.10,ESE,105,7.0,7.0,69,0.00,,,0.00,Wunderground v.1.15,2013-06-19 14:32:00,
2013-06-19 09:34:00,70.5,58.6,30.11,East,89,7.0,7.0,66,0.00,,,0.00,Wunderground v.1.15,2013-06-19 14:34:00,
2013-06-19 09:40:00,70.7,58.8,30.10,ESE,105,5.0,7.0,66,0.00,,,0.00,Wunderground v.1.15,2013-06-19 14:40:00,
2013-06-19 09:42:00,70.7,58.8,30.10,East,91,5.0,7.0,66,0.00,,,0.00,Wunderground v.1.15,2013-06-19 14:42:00,
2013-06-19 09:44:00,70.8,58.4,30.10,East,79,6.0,8.0,65,0.00,,,0.00,Wunderground v.1.15,2013-06-19 14:44:00,
2013-06-19 09:48:00,71.2,59.3,30.10,East,92,5.0,8.0,66,0.00,,,0.00,Wunderground v.1.15,2013-06-19 14:48:00,
2013-06-19 09:50:00,71.4,59.0,30.10,ESE,105,5.0,7.0,65,0.00,,,0.00,Wunderground v.1.15,2013-06-19 14:50:00,
2013-06-19 09:52:00,71.3,58.9,30.10,East,101,5.0,7.0,65,0.00,,,0.00,Wunderground v.1.15,2013-06-19 14:52:00,
2013-06-19 09:54:00,71.5,60.0,30.10,SE,126,4.0,7.0,67,0.00,,,0.00,Wunderground v.1.15,2013-06-19 14:54:00,
2013-06-19 09:58:00,72.1,60.5,30.10,East,89,4.0,7.0,67,0.00,,,0.00,Wunderground v.1.15,2013-06-19 14:58:00,
2013-06-19 10:00:00,72.1,59.2,30.10,SSE,166,4.0,7.0,64,0.00,,,0.00,Wunderground v.1.15,2013-06-19 15:00:00,
2013-06-19 10:02:00,72.3,59.9,30.10,SE,143,3.0,7.0,65,0.00,,,0.00,Wunderground v.1.15,2013-06-19 15:02:00,
2013-06-19 10:06:00,72.5,59.6,30.10,East,95,3.0,9.0,64,0.00,,,0.00,Wunderground v.1.15,2013-06-19 15:06:00,
2013-06-19 10:08:00,72.2,59.8,30.09,ESE,107,4.0,9.0,65,0.00,,,0.00,Wunderground v.1.15,2013-06-19 15:08:00,
2013-06-19 10:10:00,72.1,59.2,30.09,East,101,5.0,7.0,64,0.00,,,0.00,Wunderground v.1.15,2013-06-19 15:10:00,
2013-06-19 10:12:00,71.9,59.5,30.09,ESE,108,5.0,7.0,65,0.00,,,0.00,Wunderground v.1.15,2013-06-19 15:12:00,
2013-06-19 10:14:00,71.8,59.4,30.09,ESE,105,5.0,7.0,65,0.00,,,0.00,Wunderground v.1.15,2013-06-19 15:14:00,
2013-06-19 10:16:00,71.8,60.2,30.09,ESE,120,6.0,8.0,67,0.00,,,0.00,Wunderground v.1.15,2013-06-19 15:16:00,
2013-06-19 10:18:00,71.8,59.4,30.09,ESE,104,5.0,8.0,65,0.00,,,0.00,Wunderground v.1.15,2013-06-19 15:18:00,
2013-06-19 10:22:00,71.9,59.5,30.09,ESE,113,6.0,7.0,65,0.00,,,0.00,Wunderground v.1.15,2013-06-19 15:22:00,
2013-06-19 10:24:00,72.0,60.0,30.09,SE,126,6.0,8.0,66,0.00,,,0.00,Wunderground v.1.15,2013-06-19 15:24:00,
2013-06-19 10:26:00,72.1,60.5,30.09,ESE,120,6.0,8.0,67,0.00,,,0.00,Wunderground v.1.15,2013-06-19 15:26:00,
2013-06-19 10:30:00,72.7,61.1,30.09,SE,132,6.0,6.0,67,0.00,,,0.00,Wunderground v.1.15,2013-06-19 15:30:00,
2013-06-19 10:32:00,73.2,61.2,30.09,SSE,159,5.0,7.0,66,0.00,,,0.00,Wunderground v.1.15,2013-06-19 15:32:00,
2013-06-19 10:34:00,73.4,60.5,30.09,ESE,110,4.0,7.0,64,0.00,,,0.00,Wunderground v.1.15,2013-06-19 15:34:00,
2013-06-19 10:38:00,73.1,60.6,30.09,ENE,62,4.0,7.0,65,0.00,,,0.00,Wunderground v.1.15,2013-06-19 15:38:00,
2013-06-19 10:40:00,73.2,60.7,30.09,ESE,116,4.0,7.0,65,0.00,,,0.00,Wunderground v.1.15,2013-06-19 15:40:00,
2013-06-19 10:44:00,73.9,63.1,30.09,SE,140,4.0,7.0,69,0.00,,,0.00,Wunderground v.1.15,2013-06-19 15:44:00,
2013-06-19 10:46:00,74.2,61.2,30.09,East,97,3.0,7.0,64,0.00,,,0.00,Wunderground v.1.15,2013-06-19 15:46:00,
2013-06-19 10:52:00,73.5,60.6,30.09,ENE,76,4.0,7.0,64,0.00,,,0.00,Wunderground v.1.15,2013-06-19 15:52:00,
2013-06-19 10:54:00,73.2,61.2,30.09,NE,50,4.0,7.0,66,0.00,,,0.00,Wunderground v.1.15,2013-06-19 15:54:00,
2013-06-19 10:56:00,73.2,61.2,30.09,SSW,204,4.0,7.0,66,0.00,,,0.00,Wunderground v.1.15,2013-06-19 15:56:00,
2013-06-19 10:58:00,73.5,61.0,30.09,SSW,195,3.0,7.0,65,0.00,,,0.00,Wunderground v.1.15,2013-06-19 15:58:00,
2013-06-19 11:04:00,74.8,61.4,30.09,ESE,119,2.0,7.0,63,0.00,,,0.00,Wunderground v.1.15,2013-06-19 16:04:00,
2013-06-19 11:06:00,74.8,60.9,30.09,ESE,117,3.0,7.0,62,0.00,,,0.00,Wunderground v.1.15,2013-06-19 16:06:00,
2013-06-19 11:08:00,74.8,61.4,30.08,SE,134,3.0,7.0,63,0.00,,,0.00,Wunderground v.1.15,2013-06-19 16:08:00,
2013-06-19 11:10:00,74.7,60.8,30.08,ESE,118,4.0,4.0,62,0.00,,,0.00,Wunderground v.1.15,2013-06-19 16:10:00,
2013-06-19 11:12:00,74.6,61.2,30.08,SSE,160,5.0,5.0,63,0.00,,,0.00,Wunderground v.1.15,2013-06-19 16:12:00,
2013-06-19 11:14:00,75.0,61.1,30.09,SSE,168,5.0,7.0,62,0.00,,,0.00,Wunderground v.1.15,2013-06-19 16:14:00,
2013-06-19 11:16:00,75.4,62.4,30.09,SSE,161,4.0,7.0,64,0.00,,,0.00,Wunderground v.1.15,2013-06-19 16:16:00,
2013-06-19 11:18:00,75.6,60.7,30.09,WSW,239,3.0,7.0,60,0.00,,,0.00,Wunderground v.1.15,2013-06-19 16:18:00,
2013-06-19 11:20:00,75.6,61.2,30.09,SE,142,3.0,7.0,61,0.00,,,0.00,Wunderground v.1.15,2013-06-19 16:20:00,
2013-06-19 11:22:00,75.5,60.6,30.09,SE,146,3.0,7.0,60,0.00,,,0.00,Wunderground v.1.15,2013-06-19 16:22:00,
2013-06-19 11:28:00,75.1,62.1,30.08,SE,129,4.0,7.0,64,0.00,,,0.00,Wunderground v.1.15,2013-06-19 16:28:00,
2013-06-19 11:30:00,75.1,60.7,30.08,ESE,120,5.0,7.0,61,0.00,,,0.00,Wunderground v.1.15,2013-06-19 16:30:00,
2013-06-19 11:34:00,75.2,61.3,30.08,South,181,5.0,7.0,62,0.00,,,0.00,Wunderground v.1.15,2013-06-19 16:34:00,
2013-06-19 11:36:00,75.5,62.0,30.08,ENE,58,4.0,7.0,63,0.00,,,0.00,Wunderground v.1.15,2013-06-19 16:36:00,
2013-06-19 11:38:00,75.4,60.5,30.08,ENE,64,3.0,7.0,60,0.00,,,0.00,Wunderground v.1.15,2013-06-19 16:38:00,
2013-06-19 11:40:00,75.3,61.8,30.08,East,91,3.0,7.0,63,0.00,,,0.00,Wunderground v.1.15,2013-06-19 16:40:00,
2013-06-19 11:46:00,75.8,61.4,30.08,SE,141,5.0,7.0,61,0.00,,,0.00,Wunderground v.1.15,2013-06-19 16:46:00,
2013-06-19 11:48:00,75.8,60.9,30.08,East,99,5.0,7.0,60,0.00,,,0.00,Wunderground v.1.15,2013-06-19 16:48:00,
2013-06-19 11:52:00,75.9,60.5,30.08,East,95,4.0,7.0,59,0.00,,,0.00,Wunderground v.1.15,2013-06-19 16:52:00,
2013-06-19 11:54:00,75.8,60.4,30.08,ESE,115,4.0,7.0,59,0.00,,,0.00,Wunderground v.1.15,2013-06-19 16:54:00,
2013-06-19 11:56:00,75.7,60.8,30.08,East,84,4.0,9.0,60,0.00,,,0.00,Wunderground v.1.15,2013-06-19 16:56:00,
2013-06-19 12:00:00,75.3,60.0,30.08,South,169,5.0,5.0,59,0.00,,,0.00,Wunderground v.1.15,2013-06-19 17:00:00,
2013-06-19 12:02:00,75.5,59.7,30.08,SE,133,5.0,7.0,58,0.00,,,0.00,Wunderground v.1.15,2013-06-19 17:02:00,
2013-06-19 12:06:00,76.0,60.2,30.08,East,89,5.0,7.0,58,0.00,,,0.00,Wunderground v.1.15,2013-06-19 17:06:00,
2013-06-19 12:08:00,75.8,60.4,30.08,NE,43,4.0,7.0,59,0.00,,,0.00,Wunderground v.1.15,2013-06-19 17:08:00,
2013-06-19 12:14:00,76.2,59.9,30.08,ESE,114,3.0,8.0,57,0.00,,,0.00,Wunderground v.1.15,2013-06-19 17:14:00,
2013-06-19 12:16:00,76.0,59.2,30.08,East,99,4.0,8.0,56,0.00,,,0.00,Wunderground v.1.15,2013-06-19 17:16:00,
2013-06-19 12:18:00,76.0,59.7,30.08,SE,134,4.0,8.0,57,0.00,,,0.00,Wunderground v.1.15,2013-06-19 17:18:00,
2013-06-19 12:22:00,76.3,59.4,30.07,East,98,4.0,6.0,56,0.00,,,0.00,Wunderground v.1.15,2013-06-19 17:22:00,
2013-06-19 12:24:00,76.5,59.1,30.08,ENE,65,5.0,7.0,55,0.00,,,0.00,Wunderground v.1.15,2013-06-19 17:24:00,
2013-06-19 12:28:00,76.6,59.2,30.08,SE,127,5.0,8.0,55,0.00,,,0.00,Wunderground v.1.15,2013-06-19 17:28:00,
2013-06-19 12:30:00,76.5,59.1,30.08,ENE,71,5.0,5.0,55,0.00,,,0.00,Wunderground v.1.15,2013-06-19 17:30:00,
2013-06-19 12:32:00,76.7,58.3,30.07,South,169,5.0,7.0,53,0.00,,,0.00,Wunderground v.1.15,2013-06-19 17:32:00,
2013-06-19 12:34:00,77.3,58.3,30.07,SE,137,4.0,7.0,52,0.00,,,0.00,Wunderground v.1.15,2013-06-19 17:34:00,
2013-06-19 12:38:00,77.3,59.4,30.07,East,89,3.0,7.0,54,0.00,,,0.00,Wunderground v.1.15,2013-06-19 17:38:00,
2013-06-19 12:40:00,77.0,59.6,30.07,South,191,3.0,3.0,55,0.00,,,0.00,Wunderground v.1.15,2013-06-19 17:40:00,
2013-06-19 12:44:00,77.5,60.1,30.07,ESE,115,4.0,7.0,55,0.00,,,0.00,Wunderground v.1.15,2013-06-19 17:44:00,
2013-06-19 12:48:00,77.2,59.8,30.07,ESE,115,5.0,8.0,55,0.00,,,0.00,Wunderground v.1.15,2013-06-19 17:48:00,
2013-06-19 12:52:00,77.2,58.7,30.07,ESE,110,7.0,7.0,53,0.00,,,0.00,Wunderground v.1.15,2013-06-19 17:52:00,
2013-06-19 12:54:00,77.1,58.1,30.07,East,100,6.0,7.0,52,0.00,,,0.00,Wunderground v.1.15,2013-06-19 17:54:00,
2013-06-19 12:56:00,77.0,58.6,30.07,SE,125,6.0,7.0,53,0.00,,,0.00,Wunderground v.1.15,2013-06-19 17:56:00,
2013-06-19 12:58:00,77.1,59.7,30.07,North,357,5.0,7.0,55,0.00,,,0.00,Wunderground v.1.15,2013-06-19 17:58:00,
2013-06-19 13:00:00,77.4,58.9,30.06,SE,132,4.0,4.0,53,0.00,,,0.00,Wunderground v.1.15,2013-06-19 18:00:00,
2013-06-19 13:04:00,78.2,59.1,30.06,ENE,57,3.0,7.0,52,0.00,,,0.00,Wunderground v.1.15,2013-06-19 18:04:00,
2013-06-19 13:06:00,78.0,58.4,30.06,ENE,78,3.0,7.0,51,0.00,,,0.00,Wunderground v.1.15,2013-06-19 18:06:00,
2013-06-19 13:08:00,77.7,58.7,30.06,NE,55,4.0,9.0,52,0.00,,,0.00,Wunderground v.1.15,2013-06-19 18:08:00,
2013-06-19 13:12:00,77.7,58.7,30.06,East,89,7.0,8.0,52,0.00,,,0.00,Wunderground v.1.15,2013-06-19 18:12:00,
2013-06-19 13:16:00,77.6,58.0,30.06,ESE,108,7.0,8.0,51,0.00,,,0.00,Wunderground v.1.15,2013-06-19 18:16:00,
2013-06-19 13:18:00,77.7,58.7,30.06,SSE,153,7.0,9.0,52,0.00,,,0.00,Wunderground v.1.15,2013-06-19 18:18:00,
2013-06-19 13:22:00,78.1,58.5,30.06,SE,146,7.0,7.0,51,0.00,,,0.00,Wunderground v.1.15,2013-06-19 18:22:00,
2013-06-19 13:26:00,78.3,58.7,30.06,SE,127,6.0,7.0,51,0.00,,,0.00,Wunderground v.1.15,2013-06-19 18:26:00,
2013-06-19 13:30:00,78.2,58.0,30.05,East,101,5.0,5.0,50,0.00,,,0.00,Wunderground v.1.15,2013-06-19 18:30:00,
2013-06-19 13:32:00,78.2,57.5,30.05,East,95,5.0,7.0,49,0.00,,,0.00,Wunderground v.1.15,2013-06-19 18:32:00,
2013-06-19 13:34:00,78.3,57.0,30.05,ENE,71,4.0,7.0,48,0.00,,,0.00,Wunderground v.1.15,2013-06-19 18:34:00,
2013-06-19 13:40:00,79.0,59.3,30.06,ESE,122,4.0,7.0,51,0.00,,,0.00,Wunderground v.1.15,2013-06-19 18:40:00,
2013-06-19 13:42:00,79.1,58.9,30.06,East,79,4.0,7.0,50,0.00,,,0.00,Wunderground v.1.15,2013-06-19 18:42:00,
2013-06-19 13:44:00,79.6,59.3,30.06,South,181,4.0,7.0,50,0.00,,,0.00,Wunderground v.1.15,2013-06-19 18:44:00,
2013-06-19 13:46:00,79.9,58.5,30.05,SE,128,4.0,8.0,48,0.00,,,0.00,Wunderground v.1.15,2013-06-19 18:46:00,
2013-06-19 13:50:00,79.2,57.8,30.05,ESE,116,4.0,7.0,48,0.00,,,0.00,Wunderground v.1.15,2013-06-19 18:50:00,
2013-06-19 13:52:00,78.9,57.5,30.05,ESE,117,4.0,7.0,48,0.00,,,0.00,Wunderground v.1.15,2013-06-19 18:52:00,
2013-06-19 13:54:00,79.0,58.8,30.05,WSW,242,4.0,7.0,50,0.00,,,0.00,Wunderground v.1.15,2013-06-19 18:54:00,
2013-06-19 13:58:00,79.6,58.8,30.05,East,82,2.0,7.0,49,0.00,,,0.00,Wunderground v.1.15,2013-06-19 18:58:00,
2013-06-19 14:00:00,79.7,59.4,30.05,East,84,2.0,7.0,50,0.00,,,0.00,Wunderground v.1.15,2013-06-19 19:00:00,
2013-06-19 14:02:00,79.7,58.8,30.05,East,79,2.0,7.0,49,0.00,,,0.00,Wunderground v.1.15,2013-06-19 19:02:00,
2013-06-19 14:08:00,79.2,58.4,30.05,East,96,7.0,10.0,49,0.00,,,0.00,Wunderground v.1.15,2013-06-19 19:08:00,
2013-06-19 14:10:00,79.0,57.6,30.05,East,81,7.0,7.0,48,0.00,,,0.00,Wunderground v.1.15,2013-06-19 19:10:00,
2013-06-19 14:12:00,78.8,57.4,30.05,East,86,8.0,8.0,48,0.00,,,0.00,Wunderground v.1.15,2013-06-19 19:12:00,
2013-06-19 14:18:00,79.4,58.6,30.04,East,101,6.0,8.0,49,0.00,,,0.00,Wunderground v.1.15,2013-06-19 19:18:00,
2013-06-19 14:20:00,79.7,58.8,30.04,SE,142,6.0,6.0,49,0.00,,,0.00,Wunderground v.1.15,2013-06-19 19:20:00,
2013-06-19 14:22:00,79.7,58.8,30.04,SE,127,5.0,8.0,49,0.00,,,0.00,Wunderground v.1.15,2013-06-19 19:22:00,
2013-06-19 14:24:00,79.7,58.3,30.04,ESE,114,5.0,8.0,48,0.00,,,0.00,Wunderground v.1.15,2013-06-19 19:24:00,
2013-06-19 14:28:00,79.8,58.4,30.04,ENE,67,6.0,10.0,48,0.00,,,0.00,Wunderground v.1.15,2013-06-19 19:28:00,
2013-06-19 14:30:00,79.6,58.8,30.04,NE,43,7.0,9.0,49,0.00,,,0.00,Wunderground v.1.15,2013-06-19 19:30:00,
2013-06-19 14:32:00,79.1,57.7,30.04,NE,37,8.0,9.0,48,0.00,,,0.00,Wunderground v.1.15,2013-06-19 19:32:00,
2013-06-19 14:36:00,79.2,58.4,30.04,SE,137,6.0,9.0,49,0.00,,,0.00,Wunderground v.1.15,2013-06-19 19:36:00,
2013-06-19 14:38:00,79.7,59.4,30.04,ESE,114,5.0,12.0,50,0.00,,,0.00,Wunderground v.1.15,2013-06-19 19:38:00,
2013-06-19 14:42:00,79.7,57.7,30.04,SE,139,5.0,7.0,47,0.00,,,0.00,Wunderground v.1.15,2013-06-19 19:42:00,
2013-06-19 14:44:00,79.8,59.5,30.04,SE,134,4.0,7.0,50,0.00,,,0.00,Wunderground v.1.15,2013-06-19 19:44:00,
2013-06-19 14:46:00,79.9,57.9,30.04,NW,326,4.0,7.0,47,0.00,,,0.00,Wunderground v.1.15,2013-06-19 19:46:00,
2013-06-19 14:48:00,80.1,59.8,30.04,ESE,109,4.0,10.0,50,0.00,,,0.00,Wunderground v.1.15,2013-06-19 19:48:00,
2013-06-19 14:50:00,80.1,58.0,30.04,East,97,4.0,7.0,47,0.00,,,0.00,Wunderground v.1.15,2013-06-19 19:50:00,
2013-06-19 14:52:00,79.7,57.7,30.04,ENE,57,4.0,7.0,47,0.00,,,0.00,Wunderground v.1.15,2013-06-19 19:52:00,
2013-06-19 14:54:00,79.6,58.8,30.04,SE,129,4.0,7.0,49,0.00,,,0.00,Wunderground v.1.15,2013-06-19 19:54:00,
2013-06-19 14:56:00,79.6,58.2,30.04,ESE,107,4.0,7.0,48,0.00,,,0.00,Wunderground v.1.15,2013-06-19 19:56:00,
2013-06-19 15:00:00,79.8,58.9,30.04,ESE,110,4.0,7.0,49,0.00,,,0.00,Wunderground v.1.15,2013-06-19 20:00:00,
2013-06-19 15:04:00,79.4,58.0,30.04,SE,131,5.0,7.0,48,0.00,,,0.00,Wunderground v.1.15,2013-06-19 20:04:00,
2013-06-19 15:06:00,79.4,58.0,30.04,ESE,115,5.0,7.0,48,0.00,,,0.00,Wunderground v.1.15,2013-06-19 20:06:00,
2013-06-19 15:08:00,79.6,59.3,30.04,SE,139,4.0,7.0,50,0.00,,,0.00,Wunderground v.1.15,2013-06-19 20:08:00,
2013-06-19 15:10:00,80.0,59.1,30.04,SE,136,4.0,4.0,49,0.00,,,0.00,Wunderground v.1.15,2013-06-19 20:10:00,
2013-06-19 15:12:00,80.3,58.2,30.04,SSE,160,4.0,8.0,47,0.00,,,0.00,Wunderground v.1.15,2013-06-19 20:12:00,
2013-06-19 15:16:00,80.5,58.4,30.03,SW,226,5.0,8.0,47,0.00,,,0.00,Wunderground v.1.15,2013-06-19 20:16:00,
2013-06-19 15:18:00,80.4,57.7,30.03,SSW,207,5.0,8.0,46,0.00,,,0.00,Wunderground v.1.15,2013-06-19 20:18:00,
2013-06-19 15:20:00,80.3,57.6,30.03,SSW,195,5.0,5.0,46,0.00,,,0.00,Wunderground v.1.15,2013-06-19 20:20:00,
2013-06-19 15:24:00,80.8,58.1,30.03,ESE,113,4.0,7.0,46,0.00,,,0.00,Wunderground v.1.15,2013-06-19 20:24:00,
2013-06-19 15:34:00,80.8,57.5,30.03,SE,142,4.0,4.0,45,0.00,,,0.00,Wunderground v.1.15,2013-06-19 20:34:00,
2013-06-19 15:40:00,81.5,59.3,30.03,SE,134,4.0,7.0,47,0.00,,,0.00,Wunderground v.1.15,2013-06-19 20:40:00,
2013-06-19 15:42:00,81.7,59.5,30.03,SE,136,4.0,7.0,47,0.00,,,0.00,Wunderground v.1.15,2013-06-19 20:42:00,
2013-06-19 15:44:00,81.7,58.3,30.03,SE,125,4.0,7.0,45,0.00,,,0.00,Wunderground v.1.15,2013-06-19 20:44:00,
2013-06-19 15:46:00,81.8,59.0,30.03,SE,139,4.0,7.0,46,0.00,,,0.00,Wunderground v.1.15,2013-06-19 20:46:00,
2013-06-19 15:52:00,81.9,57.8,30.03,SE,128,3.0,7.0,44,0.00,,,0.00,Wunderground v.1.15,2013-06-19 20:52:00,
2013-06-19 15:56:00,82.0,59.2,30.03,ESE,113,4.0,10.0,46,0.00,,,0.00,Wunderground v.1.15,2013-06-19 20:56:00,
2013-06-19 15:58:00,81.5,57.5,30.03,East,82,5.0,10.0,44,0.00,,,0.00,Wunderground v.1.15,2013-06-19 20:58:00,
2013-06-19 16:00:00,81.0,57.0,30.03,East,91,6.0,10.0,44,0.00,,,0.00,Wunderground v.1.15,2013-06-19 21:00:00,
2013-06-19 16:02:00,80.8,57.5,30.03,East,92,6.0,10.0,45,0.00,,,0.00,Wunderground v.1.15,2013-06-19 21:02:00,
2013-06-19 16:06:00,80.9,58.8,30.03,SE,136,6.0,10.0,47,0.00,,,0.00,Wunderground v.1.15,2013-06-19 21:06:00,
2013-06-19 16:08:00,81.4,59.2,30.03,ESE,121,5.0,10.0,47,0.00,,,0.00,Wunderground v.1.15,2013-06-19 21:08:00,
2013-06-19 16:10:00,81.8,59.0,30.03,SSW,193,4.0,4.0,46,0.00,,,0.00,Wunderground v.1.15,2013-06-19 21:10:00,
2013-06-19 16:12:00,82.5,59.6,30.03,NE,36,3.0,7.0,46,0.00,,,0.00,Wunderground v.1.15,2013-06-19 21:12:00,
2013-06-19 16:14:00,82.3,58.2,30.03,ESE,116,3.0,7.0,44,0.00,,,0.00,Wunderground v.1.15,2013-06-19 21:14:00,
2013-06-19 16:16:00,81.8,57.1,30.03,ESE,109,3.0,7.0,43,0.00,,,0.00,Wunderground v.1.15,2013-06-19 21:16:00,
2013-06-19 16:20:00,81.5,58.1,30.03,ESE,117,4.0,8.0,45,0.00,,,0.00,Wunderground v.1.15,2013-06-19 21:20:00,
2013-06-19 16:22:00,81.3,57.3,30.03,ESE,115,5.0,8.0,44,0.00,,,0.00,Wunderground v.1.15,2013-06-19 21:22:00,
2013-06-19 16:24:00,81.1,57.7,30.03,ESE,105,5.0,8.0,45,0.00,,,0.00,Wunderground v.1.15,2013-06-19 21:24:00,
2013-06-19 16:28:00,81.0,57.7,30.03,East,83,5.0,10.0,45,0.00,,,0.00,Wunderground v.1.15,2013-06-19 21:28:00,
2013-06-19 16:32:00,80.9,57.6,30.03,East,94,5.0,7.0,45,0.00,,,0.00,Wunderground v.1.15,2013-06-19 21:32:00,
2013-06-19 16:34:00,81.0,58.3,30.03,ESE,112,4.0,7.0,46,0.00,,,0.00,Wunderground v.1.15,2013-06-19 21:34:00,
2013-06-19 16:36:00,81.3,59.1,30.03,ESE,112,4.0,7.0,47,0.00,,,0.00,Wunderground v.1.15,2013-06-19 21:36:00,
2013-06-19 16:40:00,82.3,58.2,30.03,East,98,3.0,7.0,44,0.00,,,0.00,Wunderground v.1.15,2013-06-19 21:40:00,
2013-06-19 16:46:00,82.2,57.5,30.02,ESE,104,4.0,7.0,43,0.00,,,0.00,Wunderground v.1.15,2013-06-19 21:46:00,
2013-06-19 16:48:00,81.7,58.3,30.03,North,359,4.0,7.0,45,0.00,,,0.00,Wunderground v.1.15,2013-06-19 21:48:00,
2013-06-19 16:50:00,81.6,58.2,30.02,NNE,16,4.0,4.0,45,0.00,,,0.00,Wunderground v.1.15,2013-06-19 21:50:00,
2013-06-19 16:52:00,81.6,58.2,30.02,North,354,4.0,7.0,45,0.00,,,0.00,Wunderground v.1.15,2013-06-19 21:52:00,
2013-06-19 16:56:00,81.9,58.5,30.02,West,271,2.0,7.0,45,0.00,,,0.00,Wunderground v.1.15,2013-06-19 21:56:00,
2013-06-19 17:02:00,81.5,57.5,30.02,East,94,4.0,7.0,44,0.00,,,0.00,Wunderground v.1.15,2013-06-19 22:02:00,
2013-06-19 17:08:00,81.7,57.7,30.02,East,89,4.0,7.0,44,0.00,,,0.00,Wunderground v.1.15,2013-06-19 22:08:00,
2013-06-19 17:10:00,81.7,57.7,30.02,SW,233,3.0,3.0,44,0.00,,,0.00,Wunderground v.1.15,2013-06-19 22:10:00,
2013-06-19 17:12:00,82.0,58.6,30.02,NE,43,2.0,6.0,45,0.00,,,0.00,Wunderground v.1.15,2013-06-19 22:12:00,
2013-06-19 17:14:00,81.9,57.2,30.02,East,94,2.0,7.0,43,0.00,,,0.00,Wunderground v.1.15,2013-06-19 22:14:00,
2013-06-19 17:16:00,81.7,57.0,30.02,NE,50,3.0,7.0,43,0.00,,,0.00,Wunderground v.1.15,2013-06-19 22:16:00,
2013-06-19 17:18:00,81.5,58.1,30.02,NE,53,3.0,7.0,45,0.00,,,0.00,Wunderground v.1.15,2013-06-19 22:18:00,
2013-06-19 17:22:00,81.2,57.8,30.02,NE,43,4.0,7.0,45,0.00,,,0.00,Wunderground v.1.15,2013-06-19 22:22:00,
2013-06-19 17:24:00,81.2,56.6,30.02,NE,36,3.0,7.0,43,0.00,,,0.00,Wunderground v.1.15,2013-06-19 22:24:00,
2013-06-19 17:28:00,81.5,58.1,30.02,East,79,2.0,7.0,45,0.00,,,0.00,Wunderground v.1.15,2013-06-19 22:28:00,
2013-06-19 17:30:00,81.5,58.1,30.02,East,97,3.0,7.0,45,0.00,,,0.00,Wunderground v.1.15,2013-06-19 22:30:00,
2013-06-19 17:32:00,81.4,58.0,30.01,ESE,122,3.0,7.0,45,0.00,,,0.00,Wunderground v.1.15,2013-06-19 22:32:00,
2013-06-19 17:34:00,81.3,56.7,30.02,ENE,64,4.0,7.0,43,0.00,,,0.00,Wunderground v.1.15,2013-06-19 22:34:00,
2013-06-19 17:36:00,81.3,57.9,30.02,ESE,112,4.0,8.0,45,0.00,,,0.00,Wunderground v.1.15,2013-06-19 22:36:00,
2013-06-19 17:38:00,81.5,59.3,30.02,ESE,118,6.0,8.0,47,0.00,,,0.00,Wunderground v.1.15,2013-06-19 22:38:00,
2013-06-19 17:42:00,81.4,58.0,30.02,ENE,71,5.0,7.0,45,0.00,,,0.00,Wunderground v.1.15,2013-06-19 22:42:00,
2013-06-19 17:46:00,81.2,58.5,30.02,ENE,77,5.0,7.0,46,0.00,,,0.00,Wunderground v.1.15,2013-06-19 22:46:00,
2013-06-19 17:50:00,81.3,57.3,30.02,ESE,121,5.0,5.0,44,0.00,,,0.00,Wunderground v.1.15,2013-06-19 22:50:00,
2013-06-19 17:52:00,81.4,57.4,30.02,South,183,4.0,7.0,44,0.00,,,0.00,Wunderground v.1.15,2013-06-19 22:52:00,
2013-06-19 17:54:00,81.5,56.8,30.02,SE,124,4.0,7.0,43,0.00,,,0.00,Wunderground v.1.15,2013-06-19 22:54:00,
2013-06-19 17:56:00,81.6,56.9,30.02,SSE,153,3.0,7.0,43,0.00,,,0.00,Wunderground v.1.15,2013-06-19 22:56:00,
2013-06-19 17:58:00,81.8,57.1,30.02,ESE,108,2.0,7.0,43,0.00,,,0.00,Wunderground v.1.15,2013-06-19 22:58:00,
2013-06-19 18:00:00,81.9,57.2,30.02,SE,135,1.0,7.0,43,0.00,,,0.00,Wunderground v.1.15,2013-06-19 23:00:00,
2013-06-19 18:02:00,82.0,57.3,30.02,SW,215,1.0,7.0,43,0.00,,,0.00,Wunderground v.1.15,2013-06-19 23:02:00,
2013-06-19 18:06:00,82.8,59.3,30.02,SW,215,1.0,7.0,45,0.00,,,0.00,Wunderground v.1.15,2013-06-19 23:06:00,
2013-06-19 18:08:00,82.8,58.7,30.02,NE,41,1.0,7.0,44,0.00,,,0.00,Wunderground v.1.15,2013-06-19 23:08:00,
2013-06-19 18:10:00,82.6,57.2,30.02,North,8,1.0,7.0,42,0.00,,,0.00,Wunderground v.1.15,2013-06-19 23:10:00,
2013-06-19 18:12:00,82.4,58.3,30.02,North,8,1.0,7.0,44,0.00,,,0.00,Wunderground v.1.15,2013-06-19 23:12:00,
2013-06-19 18:14:00,82.2,58.7,30.02,NE,49,1.0,7.0,45,0.00,,,0.00,Wunderground v.1.15,2013-06-19 23:14:00,
2013-06-19 18:18:00,81.7,58.3,30.02,NNE,20,2.0,7.0,45,0.00,,,0.00,Wunderground v.1.15,2013-06-19 23:18:00,
2013-06-19 18:20:00,81.6,56.9,30.02,ENE,75,2.0,7.0,43,0.00,,,0.00,Wunderground v.1.15,2013-06-19 23:20:00,
2013-06-19 18:24:00,81.7,58.3,30.02,East,80,2.0,7.0,45,0.00,,,0.00,Wunderground v.1.15,2013-06-19 23:24:00,
2013-06-19 18:26:00,81.8,57.8,30.02,ENE,71,2.0,7.0,44,0.00,,,0.00,Wunderground v.1.15,2013-06-19 23:26:00,
2013-06-19 18:28:00,81.9,58.5,30.02,NE,39,2.0,7.0,45,0.00,,,0.00,Wunderground v.1.15,2013-06-19 23:28:00,
2013-06-19 18:30:00,81.8,57.1,30.02,ENE,60,2.0,2.0,43,0.00,,,0.00,Wunderground v.1.15,2013-06-19 23:30:00,
2013-06-19 18:32:00,81.6,56.9,30.02,ENE,57,1.0,7.0,43,0.00,,,0.00,Wunderground v.1.15,2013-06-19 23:32:00,
2013-06-19 18:34:00,81.8,59.0,30.02,NE,51,1.0,7.0,46,0.00,,,0.00,Wunderground v.1.15,2013-06-19 23:34:00,
2013-06-19 18:38:00,81.7,57.7,30.02,East,92,2.0,7.0,44,0.00,,,0.00,Wunderground v.1.15,2013-06-19 23:38:00,
2013-06-19 18:40:00,81.7,57.0,30.02,East,81,2.0,7.0,43,0.00,,,0.00,Wunderground v.1.15,2013-06-19 23:40:00,
2013-06-19 18:42:00,81.6,57.6,30.02,East,93,3.0,7.0,44,0.00,,,0.00,Wunderground v.1.15,2013-06-19 23:42:00,
2013-06-19 18:44:00,81.4,56.8,30.02,ESE,108,3.0,7.0,43,0.00,,,0.00,Wunderground v.1.15,2013-06-19 23:44:00,
2013-06-19 18:46:00,81.4,57.4,30.02,ESE,107,3.0,7.0,44,0.00,,,0.00,Wunderground v.1.15,2013-06-19 23:46:00,
2013-06-19 18:48:00,81.4,57.4,30.02,ESE,108,4.0,7.0,44,0.00,,,0.00,Wunderground v.1.15,2013-06-19 23:48:00,
2013-06-19 18:50:00,81.3,56.7,30.02,ESE,110,4.0,7.0,43,0.00,,,0.00,Wunderground v.1.15,2013-06-19 23:50:00,
2013-06-19 18:52:00,81.3,57.3,30.02,East,85,3.0,7.0,44,0.00,,,0.00,Wunderground v.1.15,2013-06-19 23:52:00,
2013-06-19 18:54:00,81.2,57.2,30.02,ESE,108,4.0,7.0,44,0.00,,,0.00,Wunderground v.1.15,2013-06-19 23:54:00,
2013-06-19 19:00:00,81.2,57.2,30.02,NE,56,3.0,7.0,44,0.00,,,0.00,Wunderground v.1.15,2013-06-20 00:00:00,
2013-06-19 19:02:00,81.1,57.1,30.02,East,95,3.0,7.0,44,0.00,,,0.00,Wunderground v.1.15,2013-06-20 00:02:00,
2013-06-19 19:04:00,81.1,57.1,30.02,NE,54,3.0,7.0,44,0.00,,,0.00,Wunderground v.1.15,2013-06-20 00:04:00,
2013-06-19 19:06:00,81.0,57.7,30.02,NE,54,3.0,7.0,45,0.00,,,0.00,Wunderground v.1.15,2013-06-20 00:06:00,
2013-06-19 19:10:00,80.9,57.6,30.02,East,100,4.0,4.0,45,0.00,,,0.00,Wunderground v.1.15,2013-06-20 00:10:00,
2013-06-19 19:12:00,80.9,56.9,30.03,ENE,58,4.0,7.0,44,0.00,,,0.00,Wunderground v.1.15,2013-06-20 00:12:00,
2013-06-19 19:18:00,80.6,57.3,30.03,ESE,107,4.0,7.0,45,0.00,,,0.00,Wunderground v.1.15,2013-06-20 00:18:00,
2013-06-19 19:20:00,80.5,57.2,30.02,East,86,4.0,7.0,45,0.00,,,0.00,Wunderground v.1.15,2013-06-20 00:20:00,
2013-06-19 19:24:00,80.5,57.2,30.03,East,81,3.0,7.0,45,0.00,,,0.00,Wunderground v.1.15,2013-06-20 00:24:00,
2013-06-19 19:26:00,80.4,57.1,30.03,East,90,3.0,7.0,45,0.00,,,0.00,Wunderground v.1.15,2013-06-20 00:26:00,
2013-06-19 19:28:00,80.5,57.2,30.03,East,80,3.0,7.0,45,0.00,,,0.00,Wunderground v.1.15,2013-06-20 00:28:00,
2013-06-19 19:30:00,80.4,57.1,30.02,ENE,74,3.0,3.0,45,0.00,,,0.00,Wunderground v.1.15,2013-06-20 00:30:00,
2013-06-19 19:32:00,80.4,57.1,30.02,East,94,3.0,7.0,45,0.00,,,0.00,Wunderground v.1.15,2013-06-20 00:32:00,
2013-06-19 19:34:00,80.4,57.7,30.02,ENE,68,2.0,7.0,46,0.00,,,0.00,Wunderground v.1.15,2013-06-20 00:34:00,
2013-06-19 19:36:00,80.3,57.6,30.02,East,86,2.0,7.0,46,0.00,,,0.00,Wunderground v.1.15,2013-06-20 00:36:00,
2013-06-19 19:38:00,80.4,58.9,30.02,East,90,2.0,7.0,48,0.00,,,0.00,Wunderground v.1.15,2013-06-20 00:38:00,
2013-06-19 19:40:00,80.4,58.3,30.02,East,90,2.0,7.0,47,0.00,,,0.00,Wunderground v.1.15,2013-06-20 00:40:00,
2013-06-19 19:42:00,80.4,57.1,30.02,SE,131,2.0,7.0,45,0.00,,,0.00,Wunderground v.1.15,2013-06-20 00:42:00,
2013-06-19 19:44:00,80.5,57.8,30.02,East,97,2.0,7.0,46,0.00,,,0.00,Wunderground v.1.15,2013-06-20 00:44:00,
2013-06-19 19:46:00,80.4,57.7,30.02,ESE,107,2.0,7.0,46,0.00,,,0.00,Wunderground v.1.15,2013-06-20 00:46:00,
2013-06-19 19:48:00,80.4,58.9,30.02,East,83,2.0,7.0,48,0.00,,,0.00,Wunderground v.1.15,2013-06-20 00:48:00,
2013-06-19 19:50:00,80.3,58.8,30.02,ENE,72,2.0,7.0,48,0.00,,,0.00,Wunderground v.1.15,2013-06-20 00:50:00,
2013-06-19 19:54:00,80.0,59.7,30.02,East,90,2.0,7.0,50,0.00,,,0.00,Wunderground v.1.15,2013-06-20 00:54:00,
2013-06-19 19:56:00,79.8,58.9,30.02,East,90,2.0,7.0,49,0.00,,,0.00,Wunderground v.1.15,2013-06-20 00:56:00,
2013-06-19 19:58:00,79.6,59.9,30.02,East,99,3.0,7.0,51,0.00,,,0.00,Wunderground v.1.15,2013-06-20 00:58:00,
2013-06-19 20:04:00,78.9,60.3,30.02,East,86,3.0,7.0,53,0.00,,,0.00,Wunderground v.1.15,2013-06-20 01:04:00,
2013-06-19 20:06:00,78.6,60.0,30.02,East,86,3.0,7.0,53,0.00,,,0.00,Wunderground v.1.15,2013-06-20 01:06:00,
2013-06-19 20:08:00,78.4,60.4,30.02,East,101,3.0,7.0,54,0.00,,,0.00,Wunderground v.1.15,2013-06-20 01:08:00,
2013-06-19 20:10:00,78.2,60.2,30.02,East,91,3.0,7.0,54,0.00,,,0.00,Wunderground v.1.15,2013-06-20 01:10:00,
2013-06-19 20:12:00,78.0,60.0,30.02,East,90,3.0,7.0,54,0.00,,,0.00,Wunderground v.1.15,2013-06-20 01:12:00,
2013-06-19 20:16:00,77.6,60.2,30.02,East,83,3.0,7.0,55,0.00,,,0.00,Wunderground v.1.15,2013-06-20 01:16:00,
2013-06-19 20:18:00,77.4,60.5,30.02,East,87,3.0,7.0,56,0.00,,,0.00,Wunderground v.1.15,2013-06-20 01:18:00,
2013-06-19 20:22:00,77.1,60.2,30.02,East,83,3.0,7.0,56,0.00,,,0.00,Wunderground v.1.15,2013-06-20 01:22:00,
2013-06-19 20:24:00,77.0,60.1,30.02,East,81,4.0,7.0,56,0.00,,,0.00,Wunderground v.1.15,2013-06-20 01:24:00,
2013-06-19 20:26:00,76.8,59.9,30.02,ENE,78,4.0,7.0,56,0.00,,,0.00,Wunderground v.1.15,2013-06-20 01:26:00,
2013-06-19 20:28:00,76.6,60.2,30.02,East,80,4.0,7.0,57,0.00,,,0.00,Wunderground v.1.15,2013-06-20 01:28:00,
2013-06-19 20:30:00,76.3,59.9,30.02,ENE,74,4.0,7.0,57,0.00,,,0.00,Wunderground v.1.15,2013-06-20 01:30:00,
2013-06-19 20:32:00,76.2,59.9,30.02,ENE,73,4.0,7.0,57,0.00,,,0.00,Wunderground v.1.15,2013-06-20 01:32:00,
2013-06-19 20:36:00,75.9,59.6,30.02,ENE,71,5.0,7.0,57,0.00,,,0.00,Wunderground v.1.15,2013-06-20 01:36:00,
2013-06-19 20:38:00,75.7,59.9,30.02,East,82,5.0,7.0,58,0.00,,,0.00,Wunderground v.1.15,2013-06-20 01:38:00,
2013-06-19 20:40:00,75.5,59.7,30.02,ENE,78,5.0,5.0,58,0.00,,,0.00,Wunderground v.1.15,2013-06-20 01:40:00,
2013-06-19 20:44:00,75.1,59.8,30.02,East,94,5.0,7.0,59,0.00,,,0.00,Wunderground v.1.15,2013-06-20 01:44:00,
2013-06-19 20:46:00,74.9,59.6,30.02,East,90,5.0,7.0,59,0.00,,,0.00,Wunderground v.1.15,2013-06-20 01:46:00,
2013-06-19 20:48:00,74.7,59.4,30.02,East,84,5.0,7.0,59,0.00,,,0.00,Wunderground v.1.15,2013-06-20 01:48:00,
2013-06-19 20:52:00,74.4,59.6,30.02,East,86,5.0,7.0,60,0.00,,,0.00,Wunderground v.1.15,2013-06-20 01:52:00,
2013-06-19 20:54:00,74.2,59.9,30.02,East,81,4.0,7.0,61,0.00,,,0.00,Wunderground v.1.15,2013-06-20 01:54:00,
2013-06-19 21:00:00,73.9,59.6,30.02,East,96,4.0,7.0,61,0.00,,,0.00,Wunderground v.1.15,2013-06-20 02:00:00,
2013-06-19 21:02:00,73.8,60.0,30.02,East,96,4.0,7.0,62,0.00,,,0.00,Wunderground v.1.15,2013-06-20 02:02:00,
2013-06-19 21:06:00,73.6,59.8,30.02,East,82,4.0,7.0,62,0.00,,,0.00,Wunderground v.1.15,2013-06-20 02:06:00,
2013-06-19 21:08:00,73.6,59.3,30.02,East,101,5.0,7.0,61,0.00,,,0.00,Wunderground v.1.15,2013-06-20 02:08:00,
2013-06-19 21:10:00,73.8,59.5,30.02,East,90,5.0,7.0,61,0.00,,,0.00,Wunderground v.1.15,2013-06-20 02:10:00,
2013-06-19 21:12:00,73.9,59.6,30.02,ESE,115,5.0,7.0,61,0.00,,,0.00,Wunderground v.1.15,2013-06-20 02:12:00,
2013-06-19 21:14:00,74.0,59.7,30.03,ESE,120,6.0,7.0,61,0.00,,,0.00,Wunderground v.1.15,2013-06-20 02:14:00,
2013-06-19 21:18:00,74.1,59.3,30.03,ESE,108,6.0,7.0,60,0.00,,,0.00,Wunderground v.1.15,2013-06-20 02:18:00,
2013-06-19 21:20:00,74.1,59.3,30.03,ESE,117,7.0,8.0,60,0.00,,,0.00,Wunderground v.1.15,2013-06-20 02:20:00,
2013-06-19 21:24:00,74.0,59.7,30.03,ESE,112,7.0,8.0,61,0.00,,,0.00,Wunderground v.1.15,2013-06-20 02:24:00,
2013-06-19 21:28:00,73.8,59.5,30.03,ESE,105,6.0,8.0,61,0.00,,,0.00,Wunderground v.1.15,2013-06-20 02:28:00,
2013-06-19 21:30:00,73.7,59.4,30.03,East,101,6.0,6.0,61,0.00,,,0.00,Wunderground v.1.15,2013-06-20 02:30:00,
2013-06-19 21:32:00,73.6,59.3,30.03,ESE,105,5.0,7.0,61,0.00,,,0.00,Wunderground v.1.15,2013-06-20 02:32:00,
2013-06-19 21:34:00,73.5,59.2,30.03,East,101,5.0,7.0,61,0.00,,,0.00,Wunderground v.1.15,2013-06-20 02:34:00,
2013-06-19 21:36:00,73.5,59.7,30.03,East,89,5.0,7.0,62,0.00,,,0.00,Wunderground v.1.15,2013-06-20 02:36:00,
2013-06-19 21:40:00,73.3,59.5,30.03,East,96,5.0,7.0,62,0.00,,,0.00,Wunderground v.1.15,2013-06-20 02:40:00,
2013-06-19 21:42:00,73.1,59.3,30.03,East,95,5.0,7.0,62,0.00,,,0.00,Wunderground v.1.15,2013-06-20 02:42:00,
2013-06-19 21:46:00,72.8,59.0,30.03,ESE,122,5.0,7.0,62,0.00,,,0.00,Wunderground v.1.15,2013-06-20 02:46:00,
2013-06-19 21:48:00,72.7,59.4,30.03,ESE,120,6.0,13.0,63,0.00,,,0.00,Wunderground v.1.15,2013-06-20 02:48:00,
2013-06-19 21:50:00,72.8,59.5,30.03,ESE,110,6.0,10.0,63,0.00,,,0.00,Wunderground v.1.15,2013-06-20 02:50:00,
2013-06-19 21:52:00,72.9,59.1,30.03,East,101,7.0,10.0,62,0.00,,,0.00,Wunderground v.1.15,2013-06-20 02:52:00,
2013-06-19 21:54:00,72.9,59.1,30.03,ESE,117,8.0,10.0,62,0.00,,,0.00,Wunderground v.1.15,2013-06-20 02:54:00,
2013-06-19 21:56:00,72.9,59.1,30.03,ESE,105,9.0,13.0,62,0.00,,,0.00,Wunderground v.1.15,2013-06-20 02:56:00,
2013-06-19 22:00:00,72.8,58.6,30.03,ESE,110,10.0,10.0,61,0.00,,,0.00,Wunderground v.1.15,2013-06-20 03:00:00,
2013-06-19 22:02:00,72.7,58.9,30.04,ESE,108,10.0,10.0,62,0.00,,,0.00,Wunderground v.1.15,2013-06-20 03:02:00,
2013-06-19 22:04:00,72.6,58.8,30.04,East,81,10.0,10.0,62,0.00,,,0.00,Wunderground v.1.15,2013-06-20 03:04:00,
2013-06-19 22:06:00,72.4,58.6,30.04,ESE,106,10.0,10.0,62,0.00,,,0.00,Wunderground v.1.15,2013-06-20 03:06:00,
2013-06-19 22:08:00,72.3,58.5,30.04,East,90,9.0,10.0,62,0.00,,,0.00,Wunderground v.1.15,2013-06-20 03:08:00,
2013-06-19 22:10:00,72.0,59.2,30.04,East,96,9.0,9.0,64,0.00,,,0.00,Wunderground v.1.15,2013-06-20 03:10:00,
2013-06-19 22:14:00,71.5,58.7,30.04,ESE,105,9.0,9.0,64,0.00,,,0.00,Wunderground v.1.15,2013-06-20 03:14:00,
2013-06-19 22:16:00,71.4,58.6,30.04,ESE,108,9.0,9.0,64,0.00,,,0.00,Wunderground v.1.15,2013-06-20 03:16:00,
2013-06-19 22:20:00,71.4,58.1,30.04,ESE,105,10.0,11.0,63,0.00,,,0.00,Wunderground v.1.15,2013-06-20 03:20:00,
2013-06-19 22:24:00,71.3,57.6,30.05,ENE,75,11.0,13.0,62,0.00,,,0.00,Wunderground v.1.15,2013-06-20 03:24:00,
2013-06-19 22:26:00,71.2,57.5,30.05,East,101,11.0,13.0,62,0.00,,,0.00,Wunderground v.1.15,2013-06-20 03:26:00,
2013-06-19 22:28:00,71.1,57.4,30.05,ESE,117,11.0,13.0,62,0.00,,,0.00,Wunderground v.1.15,2013-06-20 03:28:00,
2013-06-19 22:34:00,70.9,56.8,30.05,East,96,10.0,11.0,61,0.00,,,0.00,Wunderground v.1.15,2013-06-20 03:34:00,
2013-06-19 22:36:00,70.9,57.2,30.05,East,98,9.0,11.0,62,0.00,,,0.00,Wunderground v.1.15,2013-06-20 03:36:00,
2013-06-19 22:38:00,70.7,56.6,30.05,ESE,103,9.0,11.0,61,0.00,,,0.00,Wunderground v.1.15,2013-06-20 03:38:00,
2013-06-19 22:40:00,70.7,56.6,30.05,ESE,119,9.0,9.0,61,0.00,,,0.00,Wunderground v.1.15,2013-06-20 03:40:00,
2013-06-19 22:42:00,70.7,56.6,30.05,ESE,105,10.0,10.0,61,0.00,,,0.00,Wunderground v.1.15,2013-06-20 03:42:00,
2013-06-19 22:46:00,70.5,56.4,30.05,ESE,113,10.0,10.0,61,0.00,,,0.00,Wunderground v.1.15,2013-06-20 03:46:00,
2013-06-19 22:50:00,70.3,56.7,30.05,East,100,9.0,10.0,62,0.00,,,0.00,Wunderground v.1.15,2013-06-20 03:50:00,
2013-06-19 22:52:00,70.2,56.6,30.05,ESE,117,9.0,10.0,62,0.00,,,0.00,Wunderground v.1.15,2013-06-20 03:52:00,
2013-06-19 22:54:00,70.1,56.5,30.05,ESE,106,8.0,10.0,62,0.00,,,0.00,Wunderground v.1.15,2013-06-20 03:54:00,
2013-06-19 23:00:00,69.8,56.6,30.05,ESE,108,8.0,8.0,63,0.00,,,0.00,Wunderground v.1.15,2013-06-20 04:00:00,
2013-06-19 23:02:00,69.7,56.5,30.05,East,94,7.0,8.0,63,0.00,,,0.00,Wunderground v.1.15,2013-06-20 04:02:00,
2013-06-19 23:04:00,69.5,56.8,30.06,ESE,105,7.0,8.0,64,0.00,,,0.00,Wunderground v.1.15,2013-06-20 04:04:00,
2013-06-19 23:08:00,69.4,56.7,30.06,SE,127,7.0,8.0,64,0.00,,,0.00,Wunderground v.1.15,2013-06-20 04:08:00,
2013-06-19 23:10:00,69.3,56.6,30.06,ESE,120,7.0,7.0,64,0.00,,,0.00,Wunderground v.1.15,2013-06-20 04:10:00,
2013-06-19 23:14:00,69.1,56.4,30.06,ESE,112,7.0,7.0,64,0.00,,,0.00,Wunderground v.1.15,2013-06-20 04:14:00,
2013-06-19 23:16:00,69.1,56.4,30.06,SE,124,7.0,7.0,64,0.00,,,0.00,Wunderground v.1.15,2013-06-20 04:16:00,
2013-06-19 23:18:00,69.0,56.3,30.06,ESE,108,6.0,7.0,64,0.00,,,0.00,Wunderground v.1.15,2013-06-20 04:18:00,
2013-06-19 23:20:00,69.0,56.3,30.06,ESE,119,6.0,7.0,64,0.00,,,0.00,Wunderground v.1.15,2013-06-20 04:20:00,
2013-06-19 23:24:00,69.0,56.3,30.06,ESE,105,6.0,7.0,64,0.00,,,0.00,Wunderground v.1.15,2013-06-20 04:24:00,
2013-06-19 23:26:00,69.0,56.3,30.06,East,97,6.0,7.0,64,0.00,,,0.00,Wunderground v.1.15,2013-06-20 04:26:00,
2013-06-19 23:28:00,69.0,56.3,30.06,ESE,107,6.0,7.0,64,0.00,,,0.00,Wunderground v.1.15,2013-06-20 04:28:00,
2013-06-19 23:32:00,68.8,56.6,30.06,East,101,6.0,7.0,65,0.00,,,0.00,Wunderground v.1.15,2013-06-20 04:32:00,
2013-06-19 23:34:00,68.6,56.4,30.06,SE,124,6.0,7.0,65,0.00,,,0.00,Wunderground v.1.15,2013-06-20 04:34:00,
2013-06-19 23:40:00,68.3,56.1,30.06,ESE,109,5.0,7.0,65,0.00,,,0.00,Wunderground v.1.15,2013-06-20 04:40:00,
2013-06-19 23:42:00,68.2,56.0,30.06,ESE,105,5.0,7.0,65,0.00,,,0.00,Wunderground v.1.15,2013-06-20 04:42:00,
2013-06-19 23:44:00,68.2,56.0,30.06,ESE,119,5.0,7.0,65,0.00,,,0.00,Wunderground v.1.15,2013-06-20 04:44:00,
2013-06-19 23:50:00,68.3,56.1,30.07,ESE,110,6.0,7.0,65,0.00,,,0.00,Wunderground v.1.15,2013-06-20 04:50:00,
2013-06-19 23:52:00,68.4,56.2,30.07,ESE,113,7.0,7.0,65,0.00,,,0.00,Wunderground v.1.15,2013-06-20 04:52:00,
2013-06-19 23:58:00,68.3,56.1,30.07,ESE,113,6.0,8.0,65,0.00,,,0.00,Wunderground v.1.15,2013-06-20 04:58:00,